DW6794 Weather Reports


Display with metric or nautical units.
time (UTC)temp
F
wind
direction
speed
MPH
gust
MPH
rain 1hr
in
rain 24hr
in
rain mn
in
humidity
%
barometer
mb
20170120011356 51 58 0.0 0.0 0.00 0.01 0.01 71 1009.1
20170120005357 52 58 0.0 0.0 0.00 0.01 0.01 71 1009.3
20170120004357 52 58 0.0 0.0 0.00 0.01 0.01 69 1009.4
20170120000356 54 58 0.0 0.0 0.00 0.01 0.01 69 1009.9
20170119212357 59 58 0.0 0.0 0.00 0.01 0.01 64 1011.1
20170119211357 59 58 0.0 0.0 0.01 0.01 0.01 64 1011.0
20170119193357 61 58 0.0 0.0 0.00 0.00 0.00 61 1012.0
20170119174358 59 59 1.0 3.0 0.00 0.00 0.00 68 1013.7
20170119170358 57 60 1.0 3.0 0.00 0.00 0.00 69 1013.9
20170119154358 50 67 2.0 5.0 0.00 0.00 0.00 78 1016.0
20170119145358 46 71 2.0 6.0 0.00 0.00 0.00 82 1016.0
20170119144358 45 94 2.0 5.0 0.00 0.00 0.00 83 1016.0
20170119143358 45 108 3.0 5.0 0.00 0.00 0.00 84 1016.0
20170119140358 41 168 0.0 0.0 0.00 0.00 0.00 85 1016.2
20170119135358 41 168 0.0 0.0 0.00 0.00 0.00 85 1016.4
20170119134358 40 168 0.0 0.0 0.00 0.00 0.00 85 1016.4
20170119130359 38 168 0.0 0.0 0.00 0.00 0.00 84 1016.1
20170119112359 37 168 0.0 0.0 0.00 0.00 0.00 83 1016.3
20170119100359 39 168 0.0 0.0 0.00 0.00 0.00 82 1016.2
20170119093400 39 168 0.0 0.0 0.00 0.00 0.00 81 1016.1
20170119091359 39 168 0.0 0.0 0.00 0.00 0.00 81 1016.3
20170119062400 37 254 0.0 0.0 0.00 0.03 0.00 80 1016.7
20170119061359 37 254 0.0 0.0 0.00 0.03 0.00 79 1016.6
20170119041400 37 254 0.0 0.0 0.00 0.04 0.03 76 1017.2
20170119035359 37 254 0.0 0.0 0.00 0.04 0.03 75 1017.4
20170119034400 37 254 0.0 0.0 0.00 0.04 0.03 74 1017.4
20170119033400 37 254 0.0 0.0 0.00 0.04 0.03 74 1017.4
20170119025400 38 254 0.0 0.0 0.00 0.04 0.03 75 1016.9
20170119023359 39 254 0.0 0.0 0.00 0.04 0.03 73 1017.1
20170119022359 39 254 0.0 0.0 0.00 0.04 0.03 73 1016.8
20170119021359 40 254 0.0 0.0 0.00 0.04 0.03 73 1016.8
20170119014400 41 254 0.0 0.0 0.00 0.04 0.03 72 1016.3